New Delhi, India

9:24 AM IST on February 12, 2016 (GMT +0530)
Indira Gandhi International

Weather History for VIDP - June, 2014

Change the Weather History Date:

Monday, June 9, 2014

  Actual Average Record
Temperature  
Mean Temperature 100 °F -  
Max Temperature 113 °F 98 °F 120 °F (2007)
Min Temperature 87 °F 81 °F 75 °F (2004)
Cooling Degree Days 35    
Growing Degree Days 50 (Base 50)    
Moisture  
Dew Point 52 °F    
Average Humidity 20    
Maximum Humidity 38    
Minimum Humidity 9    
Precipitation  
Precipitation 0.00 in - - ()
Sea Level Pressure  
Sea Level Pressure 29.40 in    
Wind  
Wind Speed 4 mph ()    
Max Wind Speed 9 mph    
Max Gust Speed 21 mph    
Visibility 1.9 miles    
Events      
Averages and records for this station are not official NWS values.
T = Trace of Precipitation, MM = Missing Value Source: Averaged Metar Reports

Daily Weather History Graph

Daily Weather History Graph

Search for Another Location

Airport or City:

Trip Planner

Search our weather history database for the weather conditions in past years. The results will help you decide how hot, cold, wet, or windy it might be!

Date:

Astronomy

Jun. 09, 2014 Rise Set
Actual Time 5:23 AM IST 7:18 PM IST
Civil Twilight 4:56 AM IST 7:45 PM IST
Nautical Twilight 4:24 AM IST 8:17 PM IST
Astronomical Twilight 3:49 AM IST 8:51 PM IST
Moon 3:26 PM IST (6/9) 2:14 AM IST (6/9)
Length of Visible Light 14h 48m
Length of Day
13h 55m
Waxing Gibbous, 82% of the Moon is Illuminated
Jun 9
Waxing Gibbous
Jun 13
Full
Jun 20
Last Quarter
Jun 27
New
Jul 5
First Quarter

Hourly Weather History & Observations

Time (IST) Temp. Heat Index Dew Point Humidity Pressure Visibility Wind Dir Wind Speed Gust Speed Precip Events Conditions
12:00 AM 95.0 °F - 51.8 °F 23% 29.39 in 2.2 mi West 3.5 mph - N/A   Haze
12:30 AM 93.2 °F 90.8 °F 53.6 °F 26% 29.39 in 2.2 mi WSW 4.6 mph - N/A   Haze
1:00 AM 93.2 °F 90.8 °F 53.6 °F 26% 29.39 in 2.2 mi SW 3.5 mph - N/A   Haze
2:00 AM 91.4 °F 89.4 °F 55.4 °F 29% 29.39 in 2.2 mi WSW 3.5 mph - N/A   Haze
2:30 AM 93.2 °F 91.3 °F 55.4 °F 28% 29.39 in 2.2 mi West 3.5 mph - N/A   Haze
3:00 AM 93.2 °F 91.3 °F 55.4 °F 28% 29.39 in 2.2 mi West 4.6 mph - N/A   Haze
3:30 AM 93.2 °F 91.3 °F 55.4 °F 28% 29.39 in - West 3.5 mph - N/A   Haze
4:00 AM 91.4 °F 89.4 °F 55.4 °F 29% 29.39 in - WNW 4.6 mph - N/A   Haze
5:00 AM 87.8 °F 86.5 °F 57.2 °F 35% 29.42 in 1.9 mi West 3.5 mph - N/A   Haze
5:30 AM 87.8 °F 86.5 °F 57.2 °F 35% 29.42 in 1.6 mi Calm Calm - N/A   Haze
6:00 AM 87.8 °F 86.5 °F 57.2 °F 35% 29.42 in 1.6 mi SSW 3.5 mph - N/A   Haze
6:30 AM 87.8 °F 87.1 °F 59.0 °F 38% 29.42 in 1.4 mi SW 4.6 mph - N/A   Haze
7:00 AM 89.6 °F 88.9 °F 59.0 °F 36% 29.44 in 1.4 mi West 5.8 mph - N/A   Haze
8:00 AM 95.0 °F 93.7 °F 57.2 °F 28% 29.44 in 1.6 mi West 9.2 mph - N/A   Haze
8:30 AM 96.8 °F 95.8 °F 57.2 °F 27% 29.44 in 1.6 mi West 8.1 mph - N/A   Haze
9:00 AM 98.6 °F 97.2 °F 55.4 °F 24% 29.47 in 1.6 mi WNW 5.8 mph - N/A   Haze
9:30 AM 100.4 °F 98.4 °F 53.6 °F 21% 29.47 in 1.4 mi NW 4.6 mph - N/A   Haze
10:00 AM 102.2 °F 100.4 °F 53.6 °F 20% 29.47 in 1.3 mi NW 4.6 mph - N/A   Haze
10:30 AM 104.0 °F 102.3 °F 53.6 °F 19% 29.44 in 1.4 mi West 4.6 mph - N/A   Partly Cloudy
11:00 AM 105.8 °F 104.3 °F 53.6 °F 18% 29.44 in 1.4 mi WNW 4.6 mph - N/A   Partly Cloudy
11:30 AM 107.6 °F 106.1 °F 53.6 °F 17% 29.44 in 1.4 mi NNW 4.6 mph - N/A   Partly Cloudy
12:00 PM 109.4 °F - 51.8 °F 15% 29.44 in 1.6 mi West 5.8 mph - N/A   Partly Cloudy
12:30 PM 109.4 °F - 50.0 °F 14% 29.44 in 1.7 mi NW 5.8 mph - N/A   Partly Cloudy
1:00 PM 111.2 °F - 51.8 °F 14% 29.42 in 1.7 mi WNW 5.8 mph - N/A   Partly Cloudy
2:00 PM 113.0 °F - 46.4 °F 11% 29.39 in 2.5 mi NW 5.8 mph - N/A   Partly Cloudy
2:30 PM 113.0 °F - 44.6 °F 10% 29.39 in 2.5 mi North 6.9 mph - N/A   Partly Cloudy
3:00 PM 113.0 °F - 46.4 °F 11% 29.36 in 2.5 mi North 5.8 mph 17.3 mph N/A   Scattered Clouds
3:30 PM 113.0 °F - 44.6 °F 10% 29.36 in 2.5 mi NNW 5.8 mph 17.3 mph N/A   Scattered Clouds
4:00 PM 113.0 °F - 41.0 °F 9% 29.36 in 2.5 mi NW 9.2 mph 20.7 mph N/A   Scattered Clouds
4:30 PM 113.0 °F - 44.6 °F 10% 29.33 in 2.5 mi NW 9.2 mph 20.7 mph N/A   Scattered Clouds
5:00 PM 113.0 °F - 44.6 °F 10% 29.33 in 2.5 mi NW 5.8 mph 17.3 mph N/A   Scattered Clouds
5:30 PM 113.0 °F - 42.8 °F 10% 29.33 in 2.5 mi West 5.8 mph 17.3 mph N/A   Scattered Clouds
6:00 PM 111.2 °F - 44.6 °F 11% 29.33 in 2.5 mi NW 5.8 mph 17.3 mph N/A   Scattered Clouds
6:30 PM 111.2 °F - 42.8 °F 10% 29.33 in 2.5 mi NW 5.8 mph 17.3 mph N/A   Partly Cloudy
7:00 PM 107.6 °F - 42.8 °F 11% 29.36 in 2.5 mi NW 4.6 mph - N/A   Partly Cloudy
7:30 PM 105.8 °F - 44.6 °F 13% 29.36 in 2.5 mi NW 4.6 mph - N/A   Partly Cloudy
8:00 PM 105.8 °F - 46.4 °F 14% 29.36 in 2.2 mi NNE 4.6 mph - N/A   Partly Cloudy
8:30 PM 105.8 °F - 46.4 °F 14% 29.39 in 2.2 mi Calm Calm - N/A   Partly Cloudy
9:00 PM 104.0 °F - 50.0 °F 16% 29.39 in - Calm Calm - N/A   Haze
10:00 PM 100.4 °F 98.4 °F 53.6 °F 21% 29.39 in 1.4 mi Calm Calm - N/A   Haze
10:30 PM 100.4 °F 100.2 °F 59.0 °F 25% 29.39 in 1.4 mi Calm Calm - N/A   Haze
11:00 PM 98.6 °F 98.5 °F 59.0 °F 27% 29.42 in 1.4 mi Calm Calm - N/A   Haze
11:30 PM 98.6 °F 97.6 °F 57.2 °F 25% 29.42 in 1.4 mi Calm Calm - N/A   Haze